This is the latest recevied weather packets stored in our database for station/object S54Z-11. If no packets are shown the sender has not sent any weather packets the latest 10 day(s).
| Time | Temp. | Humidity | Pressure | Rain* | Wind** | Luminosity | Snow |
|---|---|---|---|---|---|---|---|
| 1777491575 | 5° C | 100% | 1025.8 hPa | - | - | - | - |
| 1777490675 | 5° C | 100% | 1025.7 hPa | - | - | - | - |
| 1777489776 | 5° C | 100% | 1025.5 hPa | - | - | - | - |
| 1777488875 | 5.56° C | 100% | 1025.2 hPa | - | - | - | - |
| 1777487975 | 5.56° C | 100% | 1025 hPa | - | - | - | - |
| 1777487075 | 6.11° C | 100% | 1024.8 hPa | - | - | - | - |
| 1777486175 | 6.67° C | 100% | 1024.7 hPa | - | - | - | - |
| 1777485275 | 6.67° C | 100% | 1024.5 hPa | - | - | - | - |
| 1777484375 | 7.22° C | 100% | 1024.4 hPa | - | - | - | - |
| 1777483475 | 7.22° C | 100% | 1024.4 hPa | - | - | - | - |
| 1777482575 | 7.22° C | 100% | 1024.3 hPa | - | - | - | - |
| 1777481675 | 7.78° C | 100% | 1024.2 hPa | - | - | - | - |
| 1777480775 | 7.78° C | 100% | 1024.1 hPa | - | - | - | - |
| 1777479875 | 7.78° C | 100% | 1024.1 hPa | - | - | - | - |
| 1777478974 | 7.78° C | 100% | 1024.4 hPa | - | - | - | - |
| 1777478074 | 7.78° C | 100% | 1024.4 hPa | - | - | - | - |
| 1777477174 | 7.78° C | 100% | 1024.6 hPa | - | - | - | - |
| 1777476274 | 7.78° C | 100% | 1024.5 hPa | - | - | - | - |
| 1777475374 | 7.78° C | 93% | 1024.5 hPa | - | - | - | - |
| 1777474474 | 8.33° C | 88% | 1024.6 hPa | - | - | - | - |
| 1777473574 | 8.89° C | 79% | 1024.7 hPa | - | - | - | - |
| 1777472674 | 9.44° C | 76% | 1024.7 hPa | - | - | - | - |
| 1777471774 | 9.44° C | 70% | 1024.7 hPa | - | - | - | - |
| 1777470872 | 10° C | 67% | 1024.6 hPa | - | - | - | - |
| 1777469972 | 10° C | 65% | 1024.6 hPa | - | - | - | - |
* Rain since midnight (hover to see other rain measurements)
** Current wind speed in m/s (hover to see current wind gust speed)